Погода в Шахане

Казахстан     49°49′06″N   72°39′14″E
темп.,
°C
ветер,
м/с
пор.,
м/с
влажн.,
%
обл.,
%
осадки,
мм/ч
давл.,
гПа
погр.,
м
2 марта, вт
вт200:00−5зсз4891100 0.3 1018307
03:00−10з3388100 0.0 101942
06:00−11зюз2290100 0.0 101821
09:00−10зюз1291100 0.0 101854
12:00−7зюз3584100 0.0 1017371
15:00−6зюз5791100 0.5 1016531
18:00−8з5891100 0.6 1018307
21:00−11зюз6119398 0.2 1020360
3 марта, ср
ср300:00−14зюз5109599 0.3 1023358
03:00−16юз51096100 0.1 1025282
06:00−16юз51095100 0.1 1026368
09:00−18юз51096100 0.1 1026333
12:00−14юз71091100 0.1 1026416
15:00−11юз7118754 0.0 1025440
18:00−11юз6128927 0.0 1025378
21:00−12ююз6139374 0.0 1026294
4 марта, чт
чт400:00−11ююз6139285 0.0 1025324
03:00−12ююз6149086 0.0 1024308
06:00−11ююз6128480 0.0 1024264
09:00−10ююз6138399 0.0 1023345
12:00−4ююз9157796 0.0 1021595
15:00−3ююз9157833 0.0 1019799
18:00−4ю8139067 0.0 1017665
21:00−6ю71488100 0.1 1017440
5 марта, пт
пт500:00−5ююз71295100 0.6 1016436
03:00−4юз61195100 1.1 1015483
06:00−8з6129594 1.4 1020340
09:00−11зюз61196100 0.1 1026324
12:00−9юз71091100 0.1 1029426
15:00−7юз9138322 0.0 1029550
18:00−8юз8148311 0.0 1030442
21:00−10ююз7168766 0.0 1030354
6 марта, сб
сб600:00−11ююз7148845 0.0 1030310
03:00−12ююз614864 0.0 1028297
06:00−13ююз512882 0.0 1028238
09:00−12ююз5119061 0.0 1027244
12:00−7юз7119158 0.0 1025399
15:00−5юз578932 0.0 1024381
18:00−7ююз349124 0.0 102478
21:00−11ююз33880 0.0 102421